Hourly Data Report for September 10, 2017

All times are specified in Local Standard Time (LST). Add 1 hour to adjust for Daylight Saving Time where and when it is observed.

QIKIQTARJUAQ A
NUNAVUT

67°32'48.000" N
64°01'54.000" W
5.50 m
2400577
YVM

Related Data

No related data is available for this station

Download Data

Hourly Data (September 2017)
Hourly Data Report for September 10, 2017
Temp Definition
°C
Dew Point Temp Definition
°C
Rel Hum Definition
%
Wind Dir Definition
10's deg

Wind Spd Definition
km/h
Visibility Definition
km
Stn Press Definition
kPa
Hmdx Definition


Wind Chill Definition


Weather Definition


TIME
00:00 Legend Double Dagger 4.1 -1.4 67 8 18 16.1 98.56     LegendNANA
01:00 Legend Double Dagger 3.7 -1.6 68 13 5 16.1 98.66     LegendNANA
02:00 Legend Double Dagger 2.6 0.3 85 23 4 16.1 98.76     LegendNANA
03:00 Legend Double Dagger 2.8 0.0 82 18 9 16.1 98.84     LegendNANA
04:00 Legend Double Dagger 1.8 0.1 89 LegendMM 4 16.1 98.94     LegendNANA
05:00 Legend Double Dagger 1.9 -0.2 86 LegendMM 5 16.1 99.06     LegendNANA
06:00 Legend Double Dagger 3.0 -0.4 78 5 17 16.1 99.24     LegendNANA
07:00 Legend Double Dagger 3.2 -1.2 73 35 32 16.1 99.35     LegendNANA
08:00 Legend Double Dagger 3.4 -1.9 69 1 28 16.1 99.47     LegendNANA
09:00 Legend Double Dagger 3.4 -1.2 72 3 22 16.1 99.58     LegendNANA
10:00 Legend Double Dagger 4.0 -0.8 71 5 21 16.1 99.65     LegendNANA
11:00 Legend Double Dagger 3.6 -1.5 69 4 18 16.1 99.73     LegendNANA
12:00 Legend Double Dagger 3.7 -1.3 70 LegendMM 4 16.1 99.78     LegendNANA
13:00 Legend Double Dagger 3.4 -0.6 75 36 11 16.1 99.79     LegendNANA
14:00 Legend Double Dagger 4.0 -1.7 66 LegendMM 4 16.1 99.85     LegendNANA
15:00 Legend Double Dagger 4.1 -1.8 65 28 5 16.1 99.93     LegendNANA
16:00 Legend Double Dagger 3.2 -0.9 74 21 9 16.1 100.01     LegendNANA
17:00 Legend Double Dagger 3.2 -1.1 73 23 5 16.1 100.09     LegendNANA
18:00 Legend Double Dagger 2.4 -1.4 76   0 16.1 100.15     LegendNANA
19:00 Legend Double Dagger 2.0 -1.8 76   0 16.1 100.20     LegendNANA
20:00 Legend Double Dagger 2.3 -2.0 73 23 8 16.1 100.24     LegendNANA
21:00 Legend Double Dagger 1.5 -1.8 79   0 16.1 100.29     LegendNANA
22:00 Legend Double Dagger 1.4 -1.5 81   0 16.1 100.32     LegendNANA
23:00 Legend Double Dagger 0.9 -1.7 83 17 5 16.1 100.38     LegendNANA

Notes on Data Quality.

Legend

  • E = Estimated
  • M = Missing
  • NA = Not Available
  • ‡ = Partner data that is not subject to review by the National Climate Archives
Date modified: